Montgomery, NY

6:57 AM EDT on October 19, 2019 (GMT -0400)
Orange County

Weather History for KMGJ - July, 2019

Change the Weather History Date:

Wednesday, July 24, 2019

  Actual Average (KSWF) Record (KSWF)
Temperature  
Mean Temperature 70 °F -  
Max Temperature 81 °F 80 °F 97 °F (1978)
Min Temperature 60 °F 60 °F 42 °F (2006)
Cooling Degree Days 6    
Growing Degree Days 20 (Base 50)    
Moisture  
Dew Point 61 °F    
Average Humidity 85    
Maximum Humidity 100    
Minimum Humidity 42    
Precipitation  
Precipitation 0.00 in - - ()
Sea Level Pressure  
Sea Level Pressure 29.95 in    
Wind  
Wind Speed 2 mph (NNE)    
Max Wind Speed 13 mph    
Max Gust Speed 17 mph    
Visibility 6 miles    
Events Fog    
Averages and records for this station are not official NWS values.
T = Trace of Precipitation, MM = Missing Value Source: NWS Daily Summary

Daily Weather History Graph

Daily Weather History Graph

Search for Another Location

Airport or City:

Astronomy

Jul. 24, 2019 Rise Set
Actual Time 5:43 AM EDT 8:22 PM EDT
Civil Twilight 5:11 AM EDT 8:54 PM EDT
Nautical Twilight 4:31 AM EDT 9:34 PM EDT
Astronomical Twilight 3:45 AM EDT 10:20 PM EDT
Moon 12:04 AM EDT (7/24) 12:57 PM EDT (7/24)
Length of Visible Light 15h 42m
Length of Day
14h 38m
Waning Gibbous, 54% of the Moon is Illuminated
Jul 24
Waning Gibbous
Jul 24
Last Quarter
Jul 31
New
Aug 7
First Quarter
Aug 15
Full

Hourly Weather History & Observations

Time (EDT) Temp. Heat Index Dew Point Humidity Pressure Visibility Wind Dir Wind Speed Gust Speed Precip Events Conditions
12:54 AM 64.0 °F - 63.0 °F 96% 29.91 in 10.0 mi Calm Calm - N/A   Clear
1:54 AM 63.0 °F - 62.1 °F 97% 29.90 in 10.0 mi Calm Calm - N/A   Clear
2:54 AM 62.1 °F - 61.0 °F 96% 29.89 in 10.0 mi Calm Calm - N/A   Clear
3:09 AM 61.0 °F - 61.0 °F 100% 29.89 in 8.0 mi Calm Calm - N/A   Partly Cloudy
3:54 AM 60.1 °F - 60.1 °F 100% 29.90 in 10.0 mi Calm Calm - N/A   Clear
4:18 AM 61.0 °F - 61.0 °F 100% 29.91 in 10.0 mi Calm Calm - N/A   Partly Cloudy
4:41 AM 60.1 °F - 60.1 °F 100% 29.91 in 1.5 mi Calm Calm - N/A   Scattered Clouds
4:43 AM 60.1 °F - 60.1 °F 100% 29.91 in 0.8 mi Calm Calm - N/A   Mist
4:52 AM 60.8 °F - 60.8 °F 100% 29.91 in 1.2 mi Calm Calm - N/A   Mostly Cloudy
4:54 AM 60.1 °F - 60.1 °F 100% 29.91 in 4.0 mi Calm Calm - N/A   Mostly Cloudy
5:20 AM 60.1 °F - 59.0 °F 96% 29.93 in 1.8 mi Calm Calm - N/A   Overcast
5:29 AM 60.1 °F - 60.1 °F 100% 29.93 in 1.0 mi Calm Calm - N/A   Overcast
5:35 AM 60.1 °F - 60.1 °F 100% 29.93 in 2.0 mi Calm Calm - N/A   Overcast
5:43 AM 60.1 °F - 59.0 °F 96% 29.93 in 1.0 mi Calm Calm - N/A   Overcast
5:50 AM 60.8 °F - 60.8 °F 100% 29.93 in 0.8 mi Calm Calm - N/A   Overcast
5:54 AM 60.1 °F - 60.1 °F 100% 29.93 in 0.8 mi Calm Calm - N/A   Overcast
6:54 AM 61.0 °F - 61.0 °F 100% 29.95 in 0.2 mi Calm Calm - N/A Fog Fog
7:08 AM 62.1 °F - 62.1 °F 100% 29.95 in 1.5 mi Calm Calm - N/A   Overcast
7:16 AM 62.1 °F - 62.1 °F 100% 29.96 in 0.8 mi Calm Calm - N/A   Mist
7:46 AM 63.0 °F - 63.0 °F 100% 29.97 in 1.2 mi Calm Calm - N/A   Overcast
7:51 AM 62.6 °F - 62.6 °F 100% 29.97 in 3.0 mi North 3.5 mph - N/A   Mostly Cloudy
7:54 AM 63.0 °F - 63.0 °F 100% 29.97 in 4.0 mi NNE 3.5 mph - N/A   Mostly Cloudy
8:06 AM 64.0 °F - 63.0 °F 96% 29.97 in 10.0 mi Calm Calm - N/A   Scattered Clouds
8:54 AM 66.0 °F - 62.1 °F 87% 29.97 in 10.0 mi NNE 5.8 mph - N/A   Clear
9:54 AM 71.1 °F - 62.1 °F 73% 29.97 in 10.0 mi NNE 11.5 mph - N/A   Clear
10:54 AM 75.0 °F - 62.1 °F 64% 29.96 in 10.0 mi NNE 10.4 mph - N/A   Clear
11:54 AM 77.0 °F - 61.0 °F 58% 29.96 in 10.0 mi NNE 9.2 mph - N/A   Partly Cloudy
12:54 PM 79.0 °F - 60.1 °F 52% 29.96 in 10.0 mi North 12.7 mph 17.3 mph N/A   Partly Cloudy
1:54 PM 79.0 °F - 59.0 °F 50% 29.95 in 10.0 mi NE 10.4 mph - N/A   Scattered Clouds
2:54 PM 81.0 °F 80.8 °F 55.9 °F 42% 29.95 in 10.0 mi NNE 8.1 mph - N/A   Clear
3:54 PM 81.0 °F 80.8 °F 55.9 °F 42% 29.94 in 10.0 mi NE 8.1 mph - N/A   Partly Cloudy
4:54 PM 80.1 °F 80.2 °F 55.9 °F 43% 29.95 in 10.0 mi NNE 6.9 mph - N/A   Clear
5:54 PM 77.0 °F - 57.0 °F 50% 29.95 in 10.0 mi NE 6.9 mph - N/A   Partly Cloudy
6:54 PM 78.1 °F - 57.9 °F 50% 29.96 in 10.0 mi NE 4.6 mph - N/A   Clear
7:54 PM 72.0 °F - 63.0 °F 73% 29.98 in 10.0 mi Calm Calm - N/A   Clear
8:54 PM 66.9 °F - 62.1 °F 84% 30.00 in 10.0 mi Calm Calm - N/A   Clear
9:54 PM 64.0 °F - 62.1 °F 93% 30.02 in 10.0 mi Calm Calm - N/A   Clear
10:54 PM 62.1 °F - 61.0 °F 96% 30.03 in 10.0 mi Calm Calm - N/A   Clear
11:54 PM 60.1 °F - 60.1 °F 100% 30.04 in 10.0 mi Calm Calm - N/A   Clear